DELTA 1 DEB, 21465

Orbit data source: Space-Track

DELTA 1 DEB, 21465 is space debris in SSO originally from a launch on Thu, 12 Jun 1975 UTC launched from the Air Force Western Test Range (AFWTR). Debris objects in space refer to the collection of defunct objects orbiting the Earth. Examples of debris include non-operational satellites, rocket bodies, and fragments generated from explosions, collisions, or faulty payload assembly.

Loading next visibility...
Identifier
21465, 1975-052EZ
Orbit
SSO
Country
Flag of USUS
Related business
Manufacturer
Unknown
Mission
Spacecraft
Bus & Motor
Unknown
Mass
Unknown
Launch date (UTC)
1975-06-12 (50 years ago)
Launch vehicle
Unknown
Launch site
Air Force Western Test Range (AFWTR)
Object type
Payload
Rocket body
Debris
Shape & HBR
Unknown shape, 0.1 m
Radar Cross Section
Small (<0.1 m²)

Expand to show TLE details & history
Last TLE update: 7 hours ago

TLE from 7 hours ago
0 DELTA 1 DEB
1 21465U 75052EZ  25295.40669845  .00000373  00000-0  65814-3 0  9992
2 21465  99.6450 163.8548 0068733 315.2836 121.1505 13.48689341693036
Epoch: 2025-10-22T09:45Z
TLE epoch observation values (Epoch: 2025-10-22T09:45:38.746Z)
Latitude
74.01156°
Longitude
-49.80091°
Altitude
1,116.478 km
Speed
7.288 km/s
True Right ascension
08h 30m 45s
True Declination
73° 55' 29"
Sunlit
Object was in daylight at epoch
Visualization orbit readout
Latitude
Unknown
Longitude
Unknown
Altitude
Unknown
Speed
Unknown
Apparent Right ascension
Unknown
Apparent Declination
Unknown
Sunlit
N/A
Visualization observer readout
Local Sidereal Time
12:12:39
Azimuth
Unknown
Elevation
Unknown
Doppler factor
Unknown
Orbital elements
Apogee altitude
1,125.608 km
Perigee altitude
1,023.161 km
Semi-major axis
7,452.522 km
Eccentricity
0.00687
Inclination
99.645°
RAAN
163.8548°
Arg. of periapsis
315.2836°
True anomaly
121.82156°
Mean anomaly
121.1505°
Eccentric anomaly
121.48633°
Mean motion
3.37356 °/min
Orbital period
106.71 mins
BSTAR
0.00065814
Loading maneuver chart data...
Computing Atmospheric mass density...

Documentation

Showing up to 5 results
|